ONEWEB-0180, 48213

Orbit data source: Space-Track

ONEWEB-0180, 48213 is a payload satellite owned by One Web (NAA) (UK) in LEO that was launched on Sun, 25 Apr 2021 UTC via a SOYUZ-2-1B launch vehicle from the Vostochny Cosmodrome (VOSTO). Payload-class satellites include a variety of spacecraft equipped with specific instruments for various scientific and technological missions. These include communications satellites like Starlink; space stations such as the ISS; scientific satellites like the Hubble; Earth observation satellites from companies like Planet Labs, Umbra, and HawkEye 360; GPS; miniature CubeSats for education and research; and military/defense satellites.

Loading next visibility...
Identifier
48213, 2021-031D
Orbit
LEO
Country
Flag of UKUK
Related business
Manufacturer
One Web
Mission
Operational Commercial Communications
Bus & Motor
ARROW, Unknown motor
Mass
148 kg wet, ~140 kg dry
Launch date (UTC)
2021-04-25 (5 years ago)
Launch vehicle
SOYUZ-2-1B
Launch site
Vostochny Cosmodrome (VOSTO)
Object type
Payload
Rocket body
Debris
Shape & HBR
Trap Box + 2 Pan, 6.7 m
Radar Cross Section
3.464 m², Large (>1 m²)

Expand to show TLE details & history
Last TLE update: 20 hours ago

TLE from 20 hours ago
0 ONEWEB-0180
1 48213U 21031D   26094.09258258  .00000131  00000-0  31790-3 0  9993
2 48213  87.8942 304.4845 0001774  76.1311 284.0016 13.14504965238488
Epoch: 2026-04-04T02:13Z
TLE epoch observation values (Epoch: 2026-04-04T02:13:19.134Z)
Latitude
-0.00005°
Longitude
78.73746°
Altitude
1,208.35 km
Speed
7.25 km/s
True Right ascension
20h 17m 56s
True Declination
0° 00' 00"
Sunlit
Object was in daylight at epoch
Visualization orbit readout
Latitude
Unknown
Longitude
Unknown
Altitude
Unknown
Speed
Unknown
Apparent Right ascension
Unknown
Apparent Declination
Unknown
Sunlit
N/A
Visualization observer readout
Local Sidereal Time
04:09:22
Azimuth
Unknown
Elevation
Unknown
Doppler factor
Unknown
Orbital elements
Apogee altitude
1,204.241 km
Perigee altitude
1,201.551 km
Semi-major axis
7,581.033 km
Eccentricity
0.00018
Inclination
87.8942°
RAAN
304.4845°
Arg. of periapsis
76.1311°
True anomaly
283.98187°
Mean anomaly
284.0016°
Eccentric anomaly
283.99174°
Mean motion
3.28814 °/min
Orbital period
109.48 mins
BSTAR
0.0003179
Loading maneuver chart data...
Computing Atmospheric mass density...
Loading historical data...
Loading historical data...
Loading historical data...
Loading historical data...
Loading historical data...
Loading historical data...
Loading historical data...

Documentation

Showing up to 5 results
|